Location: Bern�tre
(50.1974°N, 2.0915°E)
Time: 06:11:53
(UTC+00:00)

Cosmos 2082 Rocket - Pass Details

Date: 18 September 2020
Orbit: 834 x 853 km, 71.0° (Epoch: 22 October)

Event Time Altitude Azimuth Distance (km) Brightness Sun altitude
Rises 18:53:42 0° 330° (NNW) 3,394 6.1 -9.7°
Reaches altitude 10° 18:57:51 10° 359° (N) 2,457 4.8 -10.3°
Maximum altitude 19:00:10 12° 24° (NNE) 2,283 4.4 -10.7°
Drops below altitude 10° 19:02:28 10° 49° (NE) 2,455 4.3 -11.0°
Enters shadow 19:04:23 - 64° (ENE) 2,814 4.5 -11.3°
